TimeEST,TemperatureF,Dew PointF,Humidity,Sea Level PressureIn,VisibilityMPH,Wind Direction,Wind SpeedMPH,Gust SpeedMPH,PrecipitationIn,Events,Conditions,WindDirDegrees,DateUTC
12:53 AM,19.9,8.1,60,30.17,10.0,Calm,Calm,-,N/A,,Overcast,0,2013-01-21 05:53:00
1:53 AM,19.0,10.0,68,30.16,10.0,SW,4.6,-,N/A,,Overcast,220,2013-01-21 06:53:00
2:53 AM,19.0,9.0,65,30.16,10.0,SW,5.8,-,N/A,,Overcast,230,2013-01-21 07:53:00
3:53 AM,19.0,9.0,65,30.14,10.0,WSW,5.8,-,N/A,,Overcast,240,2013-01-21 08:53:00
4:53 AM,19.9,8.1,60,30.12,10.0,WSW,5.8,-,N/A,,Overcast,240,2013-01-21 09:53:00
5:53 AM,19.0,7.0,59,30.10,10.0,WSW,8.1,16.1,N/A,,Overcast,240,2013-01-21 10:53:00
6:53 AM,18.0,5.0,57,30.10,10.0,West,11.5,16.1,N/A,,Mostly Cloudy,260,2013-01-21 11:53:00
7:53 AM,18.0,3.9,54,30.10,10.0,West,8.1,17.3,N/A,,Overcast,260,2013-01-21 12:53:00
8:53 AM,17.1,3.0,54,30.09,10.0,WSW,10.4,20.7,N/A,,Overcast,250,2013-01-21 13:53:00
9:53 AM,18.0,3.9,54,30.09,10.0,West,11.5,20.7,N/A,,Overcast,260,2013-01-21 14:53:00
10:50 AM,17.6,6.8,63,30.05,3.0,WSW,12.7,20.7,0.00,Snow,Light Snow,250,2013-01-21 15:50:00
10:53 AM,17.1,7.0,65,30.09,3.0,WSW,13.8,21.9,0.00,Snow,Light Snow,250,2013-01-21 15:53:00
11:10 AM,17.6,3.2,53,30.05,10.0,West,9.2,21.9,0.00,,Overcast,280,2013-01-21 16:10:00
11:53 AM,18.0,1.9,50,30.08,10.0,West,10.4,23.0,0.00,,Overcast,270,2013-01-21 16:53:00
12:53 PM,18.0,1.9,50,30.06,10.0,West,8.1,23.0,N/A,,Overcast,280,2013-01-21 17:53:00
1:53 PM,18.0,-0.9,44,30.05,10.0,WSW,13.8,26.5,N/A,,Overcast,250,2013-01-21 18:53:00
2:53 PM,18.0,1.0,48,30.07,10.0,West,12.7,23.0,N/A,,Mostly Cloudy,260,2013-01-21 19:53:00
3:53 PM,17.1,-0.9,45,30.09,10.0,West,11.5,20.7,N/A,,Mostly Cloudy,270,2013-01-21 20:53:00
4:53 PM,15.1,1.0,54,30.12,6.0,West,17.3,27.6,0.00,Snow,Light Snow,260,2013-01-21 21:53:00
5:02 PM,15.8,1.4,53,30.08,5.0,West,12.7,23.0,0.00,Snow,Light Snow,260,2013-01-21 22:02:00
5:34 PM,12.2,3.2,67,30.09,1.8,WNW,12.7,27.6,0.00,Snow,Light Snow,290,2013-01-21 22:34:00
5:45 PM,12.2,3.2,67,30.09,2.5,West,10.4,20.7,0.00,Snow,Light Snow,280,2013-01-21 22:45:00
5:53 PM,12.9,-0.0,56,30.14,9.0,West,9.2,20.7,0.00,,Mostly Cloudy,280,2013-01-21 22:53:00
6:11 PM,12.2,-0.4,57,30.10,10.0,Variable,5.8,-,N/A,,Mostly Cloudy,0,2013-01-21 23:11:00
6:53 PM,12.0,-2.0,53,30.16,10.0,Variable,5.8,-,N/A,,Clear,0,2013-01-21 23:53:00
7:53 PM,10.9,-2.0,56,30.17,10.0,WSW,9.2,-,N/A,,Scattered Clouds,250,2013-01-22 00:53:00
8:53 PM,10.0,-2.9,56,30.17,10.0,West,8.1,16.1,N/A,,Scattered Clouds,260,2013-01-22 01:53:00
9:53 PM,9.0,-4.0,56,30.19,10.0,West,8.1,21.9,N/A,,Partly Cloudy,260,2013-01-22 02:53:00
10:53 PM,9.0,-4.0,56,30.19,10.0,West,10.4,20.7,N/A,,Mostly Cloudy,260,2013-01-22 03:53:00
11:50 PM,8.6,-2.2,62,30.16,8.0,West,8.1,20.7,0.00,Snow,Light Snow,260,2013-01-22 04:50:00
11:53 PM,9.0,-2.0,61,30.21,8.0,WSW,10.4,20.7,0.00,,Overcast,250,2013-01-22 04:53:00